Back to catalog

SL-12 DEB

LostHEO
NORAD 44872·DEBRIS·🇷🇺 Russia

Launched Sep 2, 2010 from Baikonur Cosmodrome

Loading…

Next Passes (next 24 hours)

TLE

StaleSource: Space-Track

Epoch: Mar 26, 2022, 10:19 UTC

1 44872U 10041AM  22085.43053852  .00170694  00000-0  10198-1 0  9995
2 44872  64.6273 249.1655 5365435 355.1234   1.2076  5.08854629 42280

Track SL-12 DEB in real time with AllMySat

Download on the App Store